TimeCST,TemperatureF,Dew PointF,Humidity,Sea Level PressureIn,VisibilityMPH,Wind Direction,Wind SpeedMPH,Gust SpeedMPH,PrecipitationIn,Events,Conditions,WindDirDegrees,DateUTC
12:53 AM,25.0,17.1,72,30.35,10.0,SW,6.9,-,N/A,,Clear,220,2012-12-30 06:53:00
1:53 AM,27.0,17.1,66,30.36,10.0,SSW,8.1,-,N/A,,Clear,210,2012-12-30 07:53:00
2:53 AM,26.1,16.0,66,30.35,10.0,SSW,6.9,-,N/A,,Clear,210,2012-12-30 08:53:00
3:53 AM,25.0,16.0,69,30.35,10.0,SSW,8.1,-,N/A,,Clear,210,2012-12-30 09:53:00
4:53 AM,26.1,16.0,66,30.35,10.0,SSW,5.8,-,N/A,,Clear,200,2012-12-30 10:53:00
5:53 AM,26.1,16.0,66,30.35,10.0,SSW,6.9,-,N/A,,Clear,200,2012-12-30 11:53:00
7:53 AM,26.1,16.0,66,30.35,10.0,SSW,9.2,-,N/A,,Clear,200,2012-12-30 13:53:00
8:53 AM,28.0,18.0,66,30.35,10.0,SSW,8.1,-,N/A,,Clear,200,2012-12-30 14:53:00
9:53 AM,33.1,19.9,59,30.35,10.0,SSW,8.1,-,N/A,,Clear,200,2012-12-30 15:53:00
10:53 AM,37.9,19.0,47,30.34,10.0,SSW,12.7,-,N/A,,Clear,210,2012-12-30 16:53:00
11:53 AM,42.1,19.9,41,30.29,10.0,South,11.5,-,N/A,,Clear,190,2012-12-30 17:53:00
12:53 PM,43.0,19.9,40,30.26,10.0,SSW,15.0,23.0,N/A,,Clear,210,2012-12-30 18:53:00
1:53 PM,44.1,19.9,38,30.22,10.0,SSW,13.8,26.5,N/A,,Clear,200,2012-12-30 19:53:00
2:53 PM,45.0,19.0,36,30.19,10.0,SSW,15.0,26.5,N/A,,Clear,200,2012-12-30 20:53:00
3:53 PM,43.0,19.9,40,30.19,10.0,South,18.4,23.0,N/A,,Clear,190,2012-12-30 21:53:00
4:53 PM,42.1,19.0,40,30.18,10.0,South,17.3,27.6,N/A,,Clear,190,2012-12-30 22:53:00
5:53 PM,41.0,18.0,40,30.16,10.0,South,13.8,24.2,N/A,,Clear,190,2012-12-30 23:53:00
6:53 PM,39.9,17.1,40,30.17,10.0,South,15.0,26.5,N/A,,Clear,190,2012-12-31 00:53:00
7:53 PM,39.0,17.1,41,30.17,10.0,SSW,16.1,24.2,N/A,,Clear,200,2012-12-31 01:53:00
8:53 PM,37.9,18.0,45,30.16,10.0,SSW,10.4,19.6,N/A,,Clear,210,2012-12-31 02:53:00
9:53 PM,37.9,19.0,47,30.14,10.0,SSW,15.0,20.7,N/A,,Clear,210,2012-12-31 03:53:00
10:53 PM,37.0,19.0,48,30.15,10.0,SSW,13.8,-,N/A,,Clear,210,2012-12-31 04:53:00
11:53 PM,37.0,19.0,48,30.16,10.0,SW,12.7,20.7,N/A,,Partly Cloudy,220,2012-12-31 05:53:00